Notices

What's New in latest Release from April 7th, 2021:

- Updated Glossary, including Speed of Maximum Gust, and Total Hourly Precipitation

- Updated national and regional climate services offices contacts and prices information

- Addition of station inventory lists for 1981-2010, 1971-2000, and 1961-1990 Normals.

If you haven't already, please take our survey and provide feedback about our website: https://eccc.sondage-survey.ca/f/LanguageSelection.aspx?s=442ca660-fcf1-47c0-95a9-59707d6fd709

Hourly Data Report for December 26, 2019

CARBERRY CS
MANITOBA
Current Station Operator: ECCC - MSC

49°54'20.900" N
99°21'26.800" W
383.50 m
5010547
71170
WZE

Download Data

Hourly Data (December 2019)
Hourly Data Report for December 26, 2019
TIME
LST
Temp Definition
°C
Dew Point Definition
°C
Rel Hum Definition
%
Precip. Amount Definition
mm

Wind Dir Definition
10's deg

Wind Spd Definition
km/h
Visibility Definition
km
Stn Press Definition
kPa
Hmdx Definition


Wind Chill Definition


Weather Definition


00:00 -9.8 -10.8 92 0.0 25 5   96.65   -13 LegendNANA
01:00 -9.6 -10.6 92 0.0 26 14   96.63   -16 LegendNANA
02:00 -9.5 -10.5 92 0.0 26 17   96.59   -17 LegendNANA
03:00 -9.3 -10.3 93 0.0 26 15   96.60   -16 LegendNANA
04:00 -9.2 -10.1 93 0.0 26 16   96.57   -16 LegendNANA
05:00 -9.0 -9.7 95 0.0 26 15   96.58   -16 LegendNANA
06:00 -8.3 -8.9 96 0.0 26 15   96.59   -15 LegendNANA
07:00 -7.9 -8.5 95 0.0 27 10   96.59   -13 LegendNANA
08:00 -7.5 -8.3 94 0.0 29 13   96.58   -13 LegendNANA
09:00 -7.0 -8.1 92 0.0 28 9   96.64   -11 LegendNANA
10:00 -5.9 -7.1 91 0.0 27 8   96.69   -10 LegendNANA
11:00 -4.7 -6.4 88 0.0 28 13   96.68   -10 LegendNANA
12:00 -4.7 -5.7 93 0.0 25 9   96.67   -9 LegendNANA
13:00 -3.9 -5.3 90 0.0 26 13   96.61   -9 LegendNANA
14:00 -2.6 -5.8 79 0.0 30 20   96.59   -9 LegendNANA
15:00 -4.0 -6.6 82 0.0 27 24   96.65   -11 LegendNANA
16:00 -5.2 -7.6 83 0.0 27 20   96.70   -12 LegendNANA
17:00 -6.7 -8.6 87 0.0 26 14   96.77   -12 LegendNANA
18:00 -7.6 -9.2 89 0.0 25 16   96.74   -14 LegendNANA
19:00 -7.6 -9.5 87 0.0 25 17   96.75   -14 LegendNANA
20:00 -7.6 -9.5 86 0.0 25 13   96.76   -13 LegendNANA
21:00 -8.6 -10.7 85 0.0 25 15   96.78   -15 LegendNANA
22:00 -9.5 -11.9 83 0.0 24 14   96.75   -16 LegendNANA
23:00 -10.1 -12.5 82 0.0 23 14   96.74   -17 LegendNANA

Notes on Data Quality.

Legend

  • E = Estimated
  • M = Missing
  • NA = Not Available*
  • [empty] = Indicates an unobserved value
Date modified: